Location: Christianberg
(48.9086°N, 14.0209°E)
Time: 22:25:27
(UTC+00:00)

Cosmos 2208 Rocket - Pass Details

Date: 20 June 2021
Orbit: 754 x 805 km, 74.0° (Epoch: 03 August)

Event Time Altitude Azimuth Distance (km) Brightness Sun altitude
Exits shadow 01:16:51 16° 205° (SSW) 1,965 5.5 -11.9°
Maximum altitude 01:21:12 83° 292° (WNW) 816 4.1 -11.6°
Drops below altitude 10° 01:26:42 10° 22° (NNE) 2,397 8.1 -11.1°
Sets 01:29:07 0° 23° (NNE) 3,332 9.3 -10.9°
